Volver al catálogo

CZ-6A DEB

ActivoSSO
NORAD 54969·DEBRIS·🇨🇳 China

Lanzado Nov 11, 2022 desde Taiyuan Satellite Launch Center

Loading…

Próximos Pases (próximas 24 horas)

TLE

ActualizadoSource: Space-Track

Época: Sep 14, 2026, 22:26 UTC

1 54969U 22151TJ  26257.93520576  .00000242  00000-0  16082-3 0  9991
2 54969  98.8592 257.3220 0048651  74.0933 286.5592 14.09656226197305

Sigue CZ-6A DEB en tiempo real con AllMySat

Download on the App Store